• In Uzbekistan
  • List of Countries
  • For 7 days
  • Water Temperature
  • Satellite Maps
  • Weather Map
  • Weather Widgets
  • user-avatar
    Login

    Hourly Weather Naftalan

    Today, 25 March, Saturday

    Time Temperature Precipitation Wind Pressure Humidity
    00:00 +5°C° 0 mm 2 mps 772 mmHg 92%
    01:00 +5°C° 0 mm 2 mps 772 mmHg 93%
    02:00 +5°C° 0 mm 2 mps 771 mmHg 93%
    03:00 +4°C° 0 mm 2 mps 771 mmHg 93%
    04:00 +4°C° 0 mm 2 mps 770 mmHg 93%
    05:00 +4°C° 0 mm 2 mps 770 mmHg 93%
    06:00 +4°C° 0 mm 2 mps 770 mmHg 93%
    07:00 +5°C° 0 mm 3 mps 770 mmHg 85%
    08:00 +9°C° 0 mm 3 mps 770 mmHg 77%
    09:00 +11°C° 0 mm 3 mps 770 mmHg 69%
    10:00 +12°C° 0 mm 3 mps 769 mmHg 64%
    11:00 +13°C° 0 mm 4 mps 769 mmHg 58%
    12:00 +14°C° 0 mm 4 mps 768 mmHg 52%
    13:00 +14°C° 0 mm 4 mps 768 mmHg 52%
    14:00 +14°C° 0 mm 5 mps 767 mmHg 53%
    15:00 +14°C° 0 mm 5 mps 766 mmHg 53%
    16:00 +13°C° 0 mm 6 mps 766 mmHg 60%
    17:00 +10°C° 0 mm 6 mps 766 mmHg 67%
    18:00 +9°C° 0 mm 6 mps 766 mmHg 74%
    19:00 +8°C° 0 mm 6 mps 766 mmHg 78%
    20:00 +7°C° 0 mm 6 mps 766 mmHg 82%
    21:00 +7°C° 0 mm 6 mps 766 mmHg 86%
    22:00 +7°C° 0 mm 5 mps 766 mmHg 88%
    23:00 +6°C° 0 mm 5 mps 766 mmHg 89%

    Tomorrow, 26 March, Sunday

    Time Temperature Precipitation Wind Pressure Humidity
    00:00 +6°C° 0 mm 5 mps 765 mmHg 91%
    01:00 +6°C° 0 mm 4 mps 765 mmHg 92%
    02:00 +5°C° 0 mm 4 mps 765 mmHg 92%
    03:00 +5°C° 0 mm 4 mps 764 mmHg 93%
    04:00 +5°C° 0 mm 4 mps 764 mmHg 93%
    05:00 +5°C° 0 mm 3 mps 764 mmHg 93%
    06:00 +5°C° 0 mm 3 mps 764 mmHg 93%
    07:00 +8°C° 0 mm 3 mps 764 mmHg 83%
    08:00 +11°C° 0 mm 3 mps 764 mmHg 74%
    09:00 +13°C° 0 mm 3 mps 764 mmHg 65%
    10:00 +14°C° 0 mm 3 mps 764 mmHg 59%
    11:00 +17°C° 0 mm 3 mps 764 mmHg 54%
    12:00 +18°C° 0 mm 3 mps 763 mmHg 48%
    13:00 +18°C° 0 mm 3 mps 763 mmHg 49%
    14:00 +19°C° 0 mm 4 mps 763 mmHg 49%
    15:00 +19°C° 0 mm 4 mps 762 mmHg 49%
    16:00 +17°C° 0 mm 4 mps 762 mmHg 58%
    17:00 +14°C° 0 mm 4 mps 762 mmHg 67%
    18:00 +12°C° 0 mm 4 mps 762 mmHg 76%
    19:00 +11°C° 0 mm 4 mps 762 mmHg 77%
    20:00 +10°C° 0 mm 4 mps 763 mmHg 78%
    21:00 +10°C° 0 mm 4 mps 763 mmHg 79%
    22:00 +8°C° 0 mm 4 mps 763 mmHg 79%
    23:00 +9°C° 0 mm 3 mps 763 mmHg 78%

    Day after tomorrow, 27 March, Monday

    Time Temperature Precipitation Wind Pressure Humidity
    00:00 +9°C° 0 mm 3 mps 763 mmHg 77%
    01:00 +9°C° 0 mm 2 mps 763 mmHg 78%
    02:00 +9°C° 0 mm 2 mps 763 mmHg 78%
    03:00 +9°C° 0 mm 2 mps 762 mmHg 78%
    04:00 +9°C° 0 mm 2 mps 762 mmHg 75%
    05:00 +8°C° 0 mm 2 mps 763 mmHg 73%
    06:00 +8°C° 0 mm 2 mps 763 mmHg 70%
    07:00 +12°C° 0 mm 2 mps 763 mmHg 60%
    08:00 +14°C° 0 mm 2 mps 763 mmHg 51%
    09:00 +17°C° 0 mm 2 mps 763 mmHg 41%
    10:00 +18°C° 0 mm 3 mps 763 mmHg 40%
    11:00 +19°C° 0 mm 3 mps 763 mmHg 40%
    12:00 +20°C° 0 mm 3 mps 762 mmHg 39%
    13:00 +20°C° 0 mm 3 mps 762 mmHg 41%
    14:00 +20°C° 0 mm 4 mps 761 mmHg 43%
    15:00 +20°C° 0 mm 4 mps 761 mmHg 46%
    16:00 +18°C° 0 mm 4 mps 760 mmHg 53%
    17:00 +15°C° 0 mm 4 mps 760 mmHg 61%
    18:00 +13°C° 0 mm 3 mps 760 mmHg 69%
    19:00 +12°C° 0 mm 3 mps 761 mmHg 71%
    20:00 +11°C° 0 mm 3 mps 761 mmHg 72%
    21:00 +11°C° 0 mm 3 mps 761 mmHg 74%
    22:00 +10°C° 0 mm 3 mps 761 mmHg 76%
    23:00 +10°C° 0 mm 2 mps 760 mmHg 77%

    28 March, Tuesday

    Time Temperature Precipitation Wind Pressure Humidity
    00:00 +10°C° 0 mm 2 mps 760 mmHg 79%
    01:00 +10°C° 0 mm 2 mps 760 mmHg 78%
    02:00 +10°C° 0 mm 2 mps 760 mmHg 78%
    03:00 +10°C° 0 mm 2 mps 760 mmHg 78%
    04:00 +10°C° 0 mm 3 mps 760 mmHg 74%
    05:00 +10°C° 0 mm 3 mps 760 mmHg 71%
    06:00 +10°C° 0 mm 3 mps 760 mmHg 68%
    07:00 +12°C° 0 mm 3 mps 760 mmHg 60%
    08:00 +16°C° 0 mm 3 mps 760 mmHg 51%
    09:00 +18°C° 0 mm 3 mps 760 mmHg 43%
    10:00 +20°C° 0 mm 2 mps 760 mmHg 40%
    11:00 +21°C° 0 mm 2 mps 760 mmHg 37%
    12:00 +24°C° 0 mm 2 mps 760 mmHg 34%
    13:00 +22°C° 0 mm 4 mps 759 mmHg 39%
    14:00 +21°C° 0 mm 6 mps 759 mmHg 43%
    15:00 +20°C° 0 mm 8 mps 759 mmHg 47%
    16:00 +17°C° 0.1 mm 8 mps 760 mmHg 54%
    17:00 +13°C° 0.1 mm 8 mps 761 mmHg 60%
    18:00 +11°C° 0.1 mm 9 mps 761 mmHg 67%
    19:00 +10°C° 0.1 mm 8 mps 762 mmHg 69%
    20:00 +10°C° 0.1 mm 7 mps 763 mmHg 70%
    21:00 +9°C° 0.1 mm 6 mps 764 mmHg 72%
    22:00 +9°C° 0.2 mm 5 mps 764 mmHg 74%
    23:00 +10°C° 0.2 mm 4 mps 765 mmHg 77%

    29 March, Wednesday

    Time Temperature Precipitation Wind Pressure Humidity
    00:00 +8°C° 0.2 mm 4 mps 765 mmHg 79%
    01:00 +9°C° 0 mm 3 mps 765 mmHg 81%
    02:00 +8°C° 0 mm 3 mps 765 mmHg 82%
    03:00 +8°C° 0 mm 3 mps 765 mmHg 84%
    04:00 +8°C° 0 mm 2 mps 765 mmHg 81%
    05:00 +8°C° 0 mm 2 mps 766 mmHg 78%
    06:00 +8°C° 0 mm 2 mps 766 mmHg 75%
    07:00 +10°C° 0 mm 2 mps 766 mmHg 65%
    08:00 +13°C° 0 mm 2 mps 767 mmHg 54%
    09:00 +14°C° 0 mm 3 mps 767 mmHg 44%
    10:00 +16°C° 0 mm 3 mps 767 mmHg 40%
    11:00 +17°C° 0 mm 3 mps 766 mmHg 37%
    12:00 +18°C° 0 mm 3 mps 766 mmHg 33%
    13:00 +18°C° 0 mm 3 mps 766 mmHg 35%
    14:00 +19°C° 0 mm 4 mps 766 mmHg 37%
    15:00 +19°C° 0 mm 4 mps 766 mmHg 39%
    16:00 +16°C° 0 mm 5 mps 767 mmHg 49%
    17:00 +14°C° 0 mm 5 mps 767 mmHg 58%
    18:00 +12°C° 0 mm 5 mps 768 mmHg 68%
    19:00 +10°C° 0 mm 5 mps 769 mmHg 71%
    20:00 +9°C° 0 mm 5 mps 770 mmHg 75%
    21:00 +9°C° 0 mm 5 mps 771 mmHg 78%
    22:00 +9°C° 0 mm 5 mps 771 mmHg 78%
    23:00 +9°C° 0 mm 5 mps 772 mmHg 77%

    30 March, Thursday

    Time Temperature Precipitation Wind Pressure Humidity
    00:00 +8°C° 0 mm 5 mps 772 mmHg 77%
    01:00 +8°C° 0 mm 5 mps 772 mmHg 76%
    02:00 +9°C° 0 mm 5 mps 772 mmHg 76%
    03:00 +9°C° 0 mm 5 mps 773 mmHg 76%
    04:00 +9°C° 0 mm 5 mps 773 mmHg 77%
    05:00 +8°C° 0 mm 5 mps 773 mmHg 79%
    06:00 +8°C° 0 mm 5 mps 774 mmHg 80%
    07:00 +9°C° 0 mm 6 mps 774 mmHg 76%
    08:00 +10°C° 0 mm 6 mps 774 mmHg 72%
    09:00 +11°C° 0 mm 6 mps 774 mmHg 69%
    10:00 +11°C° 0 mm 6 mps 773 mmHg 68%
    11:00 +11°C° 0 mm 6 mps 772 mmHg 68%
    12:00 +13°C° 0 mm 6 mps 772 mmHg 67%
    13:00 +13°C° 0 mm 6 mps 771 mmHg 66%
    14:00 +13°C° 0 mm 6 mps 770 mmHg 66%
    15:00 +13°C° 0 mm 6 mps 770 mmHg 65%
    16:00 +12°C° 0 mm 5 mps 769 mmHg 70%
    17:00 +10°C° 0 mm 5 mps 769 mmHg 75%
    18:00 +10°C° 0 mm 4 mps 769 mmHg 80%
    19:00 +10°C° 0 mm 3 mps 769 mmHg 84%
    20:00 +9°C° 0 mm 3 mps 769 mmHg 88%
    21:00 +8°C° 0 mm 2 mps 769 mmHg 92%
    22:00 +8°C° 0 mm 2 mps 769 mmHg 92%
    23:00 +7°C° 0 mm 2 mps 768 mmHg 92%
    Show more